Flag for Germany Weather past 2 weeks in Dachau, Bavaria, Germany

Now
54 °F

Fog.


Feels Like: 54 °F
Forecast: 54 / 77 °F
Wind: 2 mph from South

Location: Munich / Franz Josef Strauss Airport

Current Time: Jul 25, 2014 at 6:22:29 AM

Latest Report: Jul 25, 2014 at 5:50 AM


Visibility: N/A

Pressure: 29.92 "Hg

Humidity: 100%

Dew point: 54 °F

Location of DachauLocation

Historic Weather in Dachau — Graph

°F

Dachau temperature yesterday

Maximum temperature yesterday: 75 °F (at 12:50 PM)
Minimum temperature yesterday: 50 °F (at 5:50 AM)
Average temperature yesterday: 64 °F

Past Weeks' High & Low Weather Summary

 TemperatureHumidityPressure
High88 °F (Jul 19, 3:20 PM)100% (Jul 11, 1:50 AM)30.21 "Hg (Jul 11, 1:50 AM)
Low50 °F (Jul 24, 5:50 AM)29% (Jul 19, 6:20 PM)29.80 "Hg (Jul 10, 4:20 AM)
Average66 °F75%29.98 "Hg
* Reported Jul 10 4:20 AM — Jul 25 4:50 AM, Dachau, Weather by CustomWeather, © 2014

Note: Actual official high and low records may vary slightly from our data, if they occured in-between our weather recording intervals... More about our weather records

Advertising

Dachau weather history for previous 24 hours

 ConditionsComfort  
Time TempWeatherWind HumidityBarometerVisibility
4:50 AM
Jul 25
52 °FClear.5 mph100%29.92 "Hg10 mi
4:20 AM54 °FClear.1 mph94%29.92 "Hg10 mi
3:50 AM52 °FClear.2 mph100%29.92 "Hg10 mi
3:20 AM54 °FClear.2 mph94%29.92 "Hg10 mi
2:50 AM54 °FPassing clouds.3 mph94%29.92 "HgN/A
2:20 AM55 °FCool.1 mph94%29.92 "HgN/A
1:50 AM57 °FClear.1 mph88%29.92 "Hg10 mi
1:20 AM57 °FClear.1 mph88%29.92 "Hg10 mi
12:50 AM57 °FClear.1 mph88%29.92 "Hg10 mi
12:20 AM57 °FClear.1 mph94%29.92 "Hg10 mi
11:50 PM
Jul 24
59 °FClear.2 mph88%29.92 "Hg10 mi
11:20 PM59 °FClear.1 mph82%29.92 "Hg10 mi
10:50 PM61 °FPassing clouds.3 mph83%29.92 "HgN/A
10:20 PM61 °FClear.3 mph83%29.92 "Hg10 mi
9:50 PM63 °FSunny.2 mph83%29.92 "Hg10 mi
9:20 PM64 °FSunny.2 mph78%29.89 "Hg10 mi
8:50 PM66 °FPassing clouds.6 mph78%29.89 "HgN/A
8:20 PM70 °FSunny.5 mph69%29.89 "Hg10 mi
7:50 PM73 °FPassing clouds.6 mph61%29.89 "HgN/A
7:20 PM75 °FScattered clouds.6 mph47%29.89 "HgN/A
6:50 PM75 °FScattered clouds.5 mph50%29.89 "HgN/A
6:20 PM73 °FScattered clouds.5 mph50%29.89 "HgN/A
5:50 PM73 °FPartly sunny.1 mph61%29.89 "HgN/A
5:20 PM72 °FScattered clouds.1 mph61%29.89 "HgN/A
4:50 PM70 °FScattered clouds.2 mph78%29.89 "HgN/A
4:20 PM68 °FScattered clouds.8 mph78%29.89 "HgN/A
3:50 PM68 °FSprinkles. Scattered clouds.2 mph64%29.92 "HgN/A
3:20 PM70 °FRain showers. Scattered clouds.12 mph60%29.89 "HgN/A
2:50 PM75 °FScattered clouds.5 mph44%29.89 "HgN/A
2:20 PM75 °FPassing clouds.7 mph54%29.89 "HgN/A
1:50 PM75 °FPassing clouds.8 mph54%29.92 "HgN/A
1:20 PM75 °FScattered clouds.6 mph50%29.92 "HgN/A
12:50 PM75 °FScattered clouds.9 mph54%29.92 "HgN/A
12:20 PM73 °FScattered clouds.7 mph57%29.92 "HgN/A
11:50 AM73 °FPassing clouds.8 mph57%29.92 "HgN/A
11:20 AM72 °FPassing clouds.8 mph61%29.92 "HgN/A
10:50 AM70 °FPassing clouds.8 mph64%29.92 "HgN/A
10:20 AM70 °FPassing clouds.8 mph64%29.92 "HgN/A
9:50 AM68 °FPassing clouds.7 mph73%29.92 "HgN/A
9:20 AM64 °FPassing clouds.6 mph88%29.92 "HgN/A
8:50 AM63 °FPassing clouds.6 mph88%29.92 "HgN/A
8:20 AM63 °FPassing clouds.3 mph88%29.92 "HgN/A
7:50 AM59 °FPassing clouds.5 mph100%29.92 "HgN/A
7:20 AM55 °FFog.3 mph100%29.92 "HgN/A
6:50 AM54 °FCool.5 mph100%29.92 "HgN/A
6:20 AM52 °FCool.2 mph100%29.92 "HgN/A
Weather by CustomWeather, © 2014

See weather overviewHow to use our weather pages